Timeline UpdatesTrip UpdatesNews PostsPvt Posts♥♥Travel TipsAdmin PostsConv PostsFollowed PostsChat RequestsBlog PostsPNR Posts

Disclaimer
Search
 
 
Sun Oct 26, 2014 15:02:12 ISTHomeTrainsΣChainsAtlasPNRForumGalleryNewsFAQTripsMembersLoginFeedback
No Recent News for this Train
Other Trains in the News **new
Latest...
Last run over.
Thu Jul 03, 2014 (06:27AM)
⇐ Return Journey: Train# 13111

13112/Lal Quila Express

TRAIN IS CANCELLED
Change Departure Station:
Change Arrival Station:
Post a Train Travel TipPost a Train Travel Tip **new
Post a Comment/Question/Picture/VideoPost a Comment/Question/Picture/Video
Pantry/Catering
✕ NO Pantry Car
✓ Catering Avbl
RSA - Rake Sharing
Rake/Coach Composition
loco(WAP4) slr ur rms ur b2 s4 s3 s2 ur ur b1 s1 slr hcpv hcpv.;the last 4 passenger coaches(ur b1 s1 slr) comes from giridih by 53520 giridih madhupur passenger that leaves giridih at 2250 hrs to reach madhupur at 2345 hrs to get attached to 13112 dli koaa...
Read more...
lal quila express at madhupur at 0140hrs
Loco
LOCO:WAP4 HOWRAH/GHAZIABAD SHED
News    PNR    Forum    Time-Table    Availability    Fare Chart    Map    Arr/Dep History    Trips    Gallery    ΣChains    X/O    Timeline    
Travel Time: 11h 46m    19 halts    Distance: 533 km    Avg Speed: 45 km/hr
Type: Mail/Express
Zone: ER/Eastern
Departs @ 20:50
Platform# 5
SMTWTFS
Old Delhi Junction/DLI 
Arrives @ 08:36 +1 night
Platform# ???
SMTWTFS
Rasulabad/RUB 

19 halts. 77 intermediate Stations between Old Delhi Junction and Rasulabad

Show ALL intermediate Stations  

#TrkCodeStation NameX/OArrivesAvgDepartsAvgHaltPFDay#KmSpeedElevZoneAddress
1/==/DLIOld Delhi Junction (16)»  -20:50-510.028219mNRNear Chandni Chowk Metro Station, Delhi NCT
2/==/GZBGhaziabad Junction (6)  21:33-21:35-2m2120.138217mNRGhaziabad, Uttar Pradesh
3/==/KRJKhurja Junction (4)  23:15-23:18-3m--182.772199mNCRBulandshahr, Uttar Pradesh
4/==/ALJNAligarh Junction (4)  23:54-23:59-5m21126.240192mNCRAligarh, Uttar Pradesh
5/==/HRSHathras Junction (3)  00:44-00:49-5m--2156.463183mNCRMahamaya Nagar(05722-242803), Uttar Pradesh
6/==/TDLTundla Junction (5)  01:35-01:45-10m32204.450167mNCRDistt.Firozabad, Uttar Pradesh
7/==/FZDFirozabad (4)  02:05-02:07-2m22220.960164mNCRFirozabad, Uttar Pradesh
8/==/SKBShikohabad Junction (4)  02:27-02:29-2m22240.885166mNCRDistrict Firozabad, Uttar Pradesh
9/==/ETWEtawah (5)  03:08-03:10-2m32296.289154mNCRDistt. Etawah, Uttar Pradesh
10/==/PHDPhaphund (4)  03:48-03:50-2m32352.429146mNCRdist. Auraiya, Uttar Pradesh
11/==/JJKJhinjhak (3)  04:31-04:33-2m22372.222140mNCRAuraiya, Uttar Pradesh
12/==/RURARura (4)  05:26-05:28-2m--2391.249137mNCRJhinjhak, Uttar Pradesh
13/==/PNKPanki (3)  06:08-06:10-2m--2424.046129mNCRKANPUR-208 020, Uttar Pradesh
14/==/GOYGovindpuri Junction (2)  06:20-06:22-2m22431.713129mNCRKANPUR-208 006, Uttar Pradesh
15/==/CNBKanpur Central (10)  06:40-06:50-10m42435.468128mNCRKANPUR-208 001, Uttar Pradesh
16/==/KBNKarbigwan  07:20-07:22-2m--2469.553121mNCRFatehpur, Uttar Pradesh
17/==/BKOBindki Road  07:36-07:38-2m--2481.865124mNCRFatehpur, Uttar Pradesh
18/==/MWHMalwan (2)  07:52-07:54-2m--2496.951122mNCRFatehpur, Uttar Pradesh
19/==/FTPFatehpur (3)  08:13-08:15-2m22513.060120mNCRFatehpur, Uttar Pradesh
20/==/FYZFaizullapur  08:26-08:28-2m--2524.168115mNCRFaizullapur, Uttar Pradesh
21/==/RUBRasulabad•  08:36-08:38-2m--2533.267118mNCRRasulabad, Uttar Pradesh
22/==/KGAKhaga (3)  08:51-08:53-2m--2547.774114mNCRFatehpur, Uttar Pradesh
23/==/SROSirathu (2)  09:13-09:15-2m12572.671109mNCRSirathu, Uttar Pradesh
24/==/BREBharwari  09:32-09:34-2m--2592.731108mNCRBharwari, Uttar Pradesh
25/==/ALDAllahabad Junction (10)  10:45-10:58-13m42629.836100mNCRAllahabad 211003, Uttar Pradesh
26/==%NYNNaini Junction (4)  11:10-11:12-2m12636.97898mNCRAllahabad, Uttar Pradesh
27/==/MJAMeja Road (4)  11:36-11:38-2m--2667.96594mNCRDistrict Allahabad, Uttar Pradesh
28/==/MNFManda Road  11:53-11:55-2m--2684.17293mNCRNH 76, Uttar Pradesh
29/==/BDLVindhyachal (3)  12:18-12:20-2m--2711.62488mNCRMirzapur, Uttar Pradesh
30/==/MZPMirzapur (3)  12:38-12:40-2m--2719.08288mNCRMirzapur, Uttar Pradesh
31/==/CARChunar Junction (5)  13:03-13:05-2m32750.23585mNCRChunar Junction, Uttar Pradesh
32/==/MGSMughal Sarai Junction (8)  14:00-14:15-15m12782.17683mECRDistt: Chandauli Pin 232101, Uttar Pradesh
33/==/ZNAZamania (2)  14:50-14:52-2m--2826.46777mECRGhazipur, Uttar Pradesh
34/==/DLNDildarnagar Junction (2)  15:04-15:06-2m--2839.89472mECRDildarnagar, Uttar Pradesh
35/==/BWHBhadaura (2)  15:11-15:13-2m--2847.77069mECRGhazipur, Uttar Pradesh
36/==/GMRGahmar (2)  15:20-15:22-2m--2855.94668mECRDistt: Ghazipur, Uttar Pradesh
37/==/CSAChausa (2)  15:34-15:36-2m--2865.12668mECRState Highway 14, Bihar
38/==/BXRBuxar (3)  16:01-16:05-4m--2876.19867mECRBuxar, Bihar
39/==/DUREDumraon (3)  16:15-16:17-2m--2892.47470mECRDumraon, Bihar
40/==/RPRRaghunathpur (4)  16:30-16:32-2m--2908.46669mECRRaghunathpur, Bihar
41/==/BYNBanahi (2)  16:40-16:42-2m--2917.24467mECRBanahi, Bihar
42/==/BEABihiya (3)  16:50-16:52-2m--2923.17167mECRBehea, Bihar
43/==/ARAAra Junction (3)  17:10-17:14-4m--2944.58563mECRDistt: Bhojpur Ph 06182-233411, Bihar
44/==/KUAKulharia (2)  17:21-17:23-2m--2954.53161mECRChandi Sahar Rd, Bihar
45/==/KWRKoelwar (2)  17:30-17:32-2m--2958.06665mECRNational Highway 30, Bihar
46/==/BTABihta (2)  17:40-17:42-2m--2966.81862mECRDistt: Patna, Bihar
47/==/DNRDanapur (5)  18:40-19:00-20m--2984.12358mECRKhagaul, Bihar
48/==/PNBEPatna Junction (10)  19:25-19:35-10m22993.52257mECRPatna 800001, Bihar
49/==/RJPBRajendra Nagar Bihar (4)  19:42-19:44-2m--2996.15155mECRPatna 800001, Bihar
50/==/GZHGulzarbagh (3)  19:49-19:51-2m--21000.32655mECRPatna, Bihar
51/==/PNCPatna Saheb (3)  19:58-20:00-2m--21003.45359mECRPatna 800008, Bihar
52/==/BKGBanka Ghat (2)  20:07-20:09-2m--21009.56156mECRPatna, Bihar
53/==/FUTFatwa (6)  20:15-20:17-2m--21015.66353mECRPatna, Bihar
54/==/KOOKhusropur (2)  20:25-20:27-2m--21024.16452mECRPatna, Bihar
55/==/BKPBakhtiyarpur Junction (5)  20:41-20:43-2m--21038.96451mECRPatna, Bihar
56/==/BARHBarh (3)  21:00-21:02-2m--21057.02549mECRBarh, Bihar
57/==/MKAMokama Junction (4)  22:03-22:08-5m--21082.77648mECRPatna, Bihar
58/==/BRYABarhiya (3)  22:22-22:24-2m--21100.57047mECRBarahiya, Bihar
59/==/LKRLuckeesarai Junction (2)  22:37-22:39-2m--21115.6852mECRLakhisarai, Bihar
60/==/KIULKiul Junction (5)  22:49-22:54-5m--21116.98253mECRDist. Lakhisarai, Bihar
61/==/JMUJamui (2)  23:14-23:16-2m--21144.24281mECRState Highway 72, Bihar
62/==/JAJJhajha (4)  23:53-23:58-5m--21170.283143mECRJhajha, Bihar
63/==/JSMEJasidih Junction (5)  00:30-00:35-5m--31214.370271mERJasidih, Jharkhand
64/==/MDPMadhupur Junction (4)  01:00-01:40-40m--31243.490254mER06432-224478, Jharkhand
65/==/JMTJamtara (2)  02:08-02:10-2m231285.554201mERJamtara, Jharkhand
66/==/CRJChittaranjan (3)  02:26-02:28-2m231299.841182mERMihijam, Jharkhand
67/==/ASNAsansol Junction (7)  03:05-03:15-10m--31324.972113mERDist - Bardhaman, West Bengal
68/==/RNGRaniGanj (4)  03:30-03:32-2m--31343.07292mERRaniganj, West Bengal
69/==/BWNBarddhaman Junction (8)  04:45-04:50-5m--31430.86134mERDist - Barddhaman, West Bengal
70/==/BDCBandel Junction (7)  05:56-06:01-5m--31498.12414mERdist - HOOGHLY, West Bengal
71/==/NHNaihati Junction (5)  06:22-06:30-8m--31506.53515mERdist - North 24 paraganas - 743165, West Bengal
72/==/KOAAKolkata Chitpur (5)  07:30--531541.4-6mERKolkata, West Bengal
Scroll to Top
Scroll to Bottom